Retour au catalogue

COSMOS 1691

ActifNavigationPO
NORAD 16139·PAYLOAD·🇷🇺 Russia

Lancé Oct 9, 1985 depuis Plesetsk Cosmodrome

Loading…

Prochains Passages (prochaines 24 heures)

TLE

FraisSource: Space-Track

Époque: Sep 14, 2026, 08:08 UTC

1 16139U 85094B   26257.33927244 -.00000001  00000-0 -64835-4 0  9995
2 16139  82.6087 233.2497 0001263  66.9649  96.5976 12.62477204886486

Suivez COSMOS 1691 en temps réel avec AllMySat

Download on the App Store